This demonstration page uses our WeatherBlox Daily Observations layout. Learn more.

Hourly Observations for June 19, 2020

Temp ( °F °C ) Dew Point ( °F °C ) Humidity (%) Winds ( mph kmh ) Pressure ( in mb ) Visibility ( mi km ) Precip ( " mm )
12:15 am 00:15 Clear 62 16.7 55 12.5 76 76 NNE 6 9 30 1016 10 16.0934 0 0
12:35 am 00:35 Mostly Cloudy 61 16 54 12.4 79 79 NNE 5 7 30.02 1017 10 16.0934 0 0
12:55 am 00:55 Partly Cloudy 60 15.5 55 12.6 83 83 NNE 3 6 30.03 1017 10 16.0934 0 0
1:15 am 01:15 Partly Cloudy 58 14.5 54 12.3 87 87 NE 7 11 30.03 1017 10 16.0934 0 0
1:35 am 01:35 Clear 59 14.8 55 12.7 87 87 N 6 9 30.03 1017 10 16.0934 0 0
1:55 am 01:55 Partly Cloudy 58 14.5 55 12.8 90 90 N 7 11 30.03 1017 10 16.0934 0 0
2:15 am 02:15 Mostly Cloudy 60 15.5 55 13 85 85 N 6 9 30.01 1016 10 16.0934 0 0
2:35 am 02:35 Cloudy 60 15.6 56 13.1 85 85 N 3 6 30.02 1017 10 16.0934 0 0
2:55 am 02:55 Cloudy 61 15.9 56 13.2 84 84 N 6 9 30.01 1016 10 16.0934 0 0
3:15 am 03:15 Cloudy 60 15.7 56 13.1 85 85 N 8 13 30 1016 10 16.0934 0 0
3:35 am 03:35 Cloudy 60 15.5 56 13.1 86 86 N 7 11 30.01 1016 10 16.0934 0 0
3:55 am 03:55 Mostly Cloudy 60 15.3 55 13 86 86 N 8 13 30.02 1016 10 16.0934 0 0
4:15 am 04:15 Partly Cloudy 59 14.8 55 12.9 88 88 N 8 13 30.01 1016 10 16.0934 0 0
4:35 am 04:35 Clear 58 14.5 55 12.7 89 89 N 6 9 30.02 1017 10 16.0934 0 0
4:55 am 04:55 Mostly Cloudy 59 14.8 55 13 89 89 N 6 9 30.03 1017 10 16.0934 0 0
5:15 am 05:15 Cloudy 59 14.8 56 13.1 90 90 N 6 9 30.04 1017 10 16.0934 0 0
5:35 am 05:35 Cloudy 58 14.6 56 13.1 91 91 NNE 6 9 30.05 1018 10 16.0934 0 0
5:55 am 05:55 Cloudy 58 14.5 56 13.2 92 92 NNE 7 11 30.05 1018 10 16.0934 0 0
6:15 am 06:15 Cloudy 59 15 56 13.2 89 89 NNE 7 11 30.05 1018 10 16.0934 0 0
6:35 am 06:35 Cloudy 59 15 56 13.3 90 90 NNE 8 13 30.05 1018 10 16.0934 0 0
6:55 am 06:55 Cloudy 59 15 56 13.4 90 90 NNE 7 11 30.05 1018 10 16.0934 0 0
7:15 am 07:15 Cloudy 60 15.3 56 13.5 89 89 NE 10 17 30.04 1017 10 16.0934 0 0
7:35 am 07:35 Partly Cloudy 60 15.7 56 13.5 87 87 NE 10 17 30.02 1017 10 16.0934 0 0
7:55 am 07:55 Sunny 61 16.3 57 13.8 85 85 NNE 10 17 30.03 1017 10 16.0934 0 0
8:15 am 08:15 Sunny 63 17.2 57 14 82 82 NNE 12 19 30.01 1016 10 16.0934 0 0
8:35 am 08:35 Sunny 64 17.7 57 14.1 80 80 NNE 9 15 30.01 1016 10 16.0934 0 0
8:55 am 08:55 Sunny 64 17.9 57 14.1 79 79 NNE 8 13 30.01 1016 10 16.0934 0 0
9:15 am 09:15 Partly Cloudy 64 18 58 14.2 79 79 NNE 7 11 30.02 1017 10 16.0934 0 0
9:35 am 09:35 Sunny 65 18.4 58 14.2 77 77 ENE 7 11 30.02 1017 10 16.0934 0 0
9:55 am 09:55 Sunny 65 18.5 57 14 75 75 ENE 10 17 30.02 1017 10 16.0934 0 0
10:15 am 10:15 Partly Cloudy 65 18.6 58 14.2 76 76 E 12 19 30.02 1017 10 16.0934 0 0
10:35 am 10:35 Partly Cloudy 66 18.7 57 13.8 73 73 E 16 26 30 1016 10 16.0934 0 0
10:55 am 10:55 Partly Cloudy 66 18.7 57 13.9 74 74 E 12 19 30.02 1017 10 16.0934 0 0
11:15 am 11:15 Mostly Cloudy 66 19 58 14.3 74 74 NE 10 17 30.02 1016 10 16.0934 0 0
11:35 am 11:35 Cloudy 66 19 58 14.3 74 74 ENE 12 19 30.02 1016 10 16.0934 0 0
11:55 am 11:55 Cloudy 67 19.2 58 14.6 75 75 ENE 12 19 30.01 1016 10 16.0934 0 0
12:15 pm 12:15 Cloudy 66 19.1 58 14.5 75 75 ENE 12 19 30.01 1016 10 16.0934 0 0
12:35 pm 12:35 Cloudy 66 19 58 14.5 75 75 NE 8 13 30.03 1017 10 16.0934 0 0
12:55 pm 12:55 Cloudy with Light Rain 64 18 60 15.3 84 84 NNE 7 11 30.02 1017 7 11.26538 0.03 0.762
1:15 pm 13:15 Cloudy 66 18.7 60 15.3 81 81 NE 9 15 30.02 1017 10 16.0934 0 0
1:35 pm 13:35 Cloudy 66 18.8 59 15 79 79 NE 12 19 30.02 1016 10 16.0934 0 0
1:55 pm 13:55 Cloudy 66 19 59 15.1 78 78 ENE 14 22 30.01 1016 10 16.0934 0 0
2:15 pm 14:15 Cloudy 66 18.7 58 14.7 78 78 ENE 14 22 30.01 1016 10 16.0934 0 0
2:35 pm 14:35 Cloudy 66 19 58 14.7 76 76 ENE 13 20 30 1016 10 16.0934 0 0
2:55 pm 14:55 Cloudy 67 19.3 60 15.6 79 79 E 12 19 29.99 1016 10 16.0934 0 0
3:15 pm 15:15 Cloudy 67 19.7 59 14.9 74 74 ENE 14 22 29.98 1015 10 16.0934 0 0
3:35 pm 15:35 Cloudy 68 20 59 14.9 73 73 ENE 12 19 29.99 1015 10 16.0934 0 0
3:55 pm 15:55 Cloudy 68 20 59 15 73 73 E 13 20 29.99 1015 10 16.0934 0 0
4:15 pm 16:15 Cloudy 68 19.8 58 14.7 73 73 E 10 17 29.99 1016 10 16.0934 0 0
4:35 pm 16:35 Cloudy 67 19.7 58 14.6 73 73 E 12 19 29.98 1015 10 16.0934 0 0
4:55 pm 16:55 Cloudy 69 20.5 60 15.5 73 73 E 12 19 29.96 1015 10 16.0934 0 0
5:15 pm 17:15 Cloudy 68 20 60 15.6 76 76 E 12 19 29.97 1015 10 16.0934 0 0
5:35 pm 17:35 Cloudy 68 20 60 15.8 77 77 ENE 12 19 29.97 1015 10 16.0934 0 0
5:55 pm 17:55 Cloudy 67 19.7 61 16.1 80 80 E 7 11 29.97 1015 10 16.0934 0 0
6:15 pm 18:15 Cloudy 67 19.5 61 16.1 81 81 ENE 9 15 29.97 1015 10 16.0934 0 0
6:35 pm 18:35 Cloudy 67 19.3 61 16 81 81 ENE 8 13 29.96 1015 10 16.0934 0 0
6:55 pm 18:55 Cloudy 67 19.3 61 16.2 82 82 E 6 9 29.97 1015 10 16.0934 0 0
7:15 pm 19:15 Cloudy 67 19.6 61 16.3 81 81 ENE 9 15 29.96 1015 10 16.0934 0 0
7:35 pm 19:35 Cloudy 67 19.6 61 16.2 81 81 ENE 9 15 29.95 1014 10 16.0934 0 0
7:55 pm 19:55 Cloudy 67 19.6 61 16.3 81 81 E 8 13 29.94 1014 10 16.0934 0 0
8:15 pm 20:15 Cloudy 67 19.5 61 16 80 80 ENE 8 13 29.94 1014 10 16.0934 0 0
8:35 pm 20:35 Cloudy 67 19.3 61 16.3 83 83 ENE 6 9 29.96 1015 10 16.0934 0 0
8:55 pm 20:55 Cloudy 66 19.1 62 16.4 84 84 NE 3 6 29.97 1015 10 16.0934 0 0
9:15 pm 21:15 Cloudy 66 19 62 16.5 86 86 ENE 5 7 29.98 1015 10 16.0934 0 0
9:35 pm 21:35 Cloudy 66 19 62 16.5 86 86 NE 5 7 29.98 1015 10 16.0934 0 0
9:55 pm 21:55 Cloudy 66 18.8 62 16.5 87 87 E 7 11 29.97 1015 10 16.0934 0 0
10:15 pm 22:15 Cloudy 66 19 62 16.5 86 86 Calm 29.99 1015 10 16.0934 0 0
10:35 pm 22:35 Cloudy with Nearby Thunderstorms 66 18.8 61 16.3 85 85 Calm 29.99 1015 10 16.0934 0 0
10:55 pm 22:55 Cloudy with Light Rain 65 18.6 62 16.5 88 88 NNW 3 6 30 1016 10 16.0934 0 0
11:15 pm 23:15 Cloudy with Light Rain 65 18.3 62 16.7 90 90 Calm 30 1016 10 16.0934 0 0
11:35 pm 23:35 Cloudy with Heavy Rain 65 18.2 63 17 93 93 Calm 30.01 1016 2 3.21868 0.14 3.556
11:55 pm 23:55 Cloudy with Nearby Thunderstorms 64 17.8 63 17.1 96 96 Calm 30.03 1017 4 6.43736 0.23 5.842

Powered by AerisWeather